Weather in Dvorishchi

Russia / Novgorod Oblast     58°39′01″N   32°20′48″E
temp.,
°C
wind,
m/s
gust,
m/s
humid.,
%
clouds,
%
prec.,
mm/h
press.,
hPa
HPBL,
m
18 january, mon
mon1800:00−12ssw259598 0.3 1017186
03:00−12ssw259595 0.5 1017179
06:00−12ssw249699 0.3 1017137
09:00−11ssw249698 0.4 1017166
12:00−10ssw249295 0.3 1018206
15:00−10ssw129396 0.3 1018181
18:00−11ssw129785 0.1 101766
21:00−12s229784 0.1 101850
19 january, tue
tue1900:00−12ssw129783 0.1 101822
03:00−13ssw129786 0.1 101833
06:00−13ssw229897 0.1 101742
09:00−14ssw229899 0.1 101755
12:00−12ssw2394100 0.0 1017182
15:00−11ssw249499 0.1 1017228
18:00−13ssw229789 0.0 101644
21:00−14ssw239783 0.0 101777
20 january, wed
wed2000:00−14ssw239878 0.0 101774
03:00−14ssw249884 0.1 101799
06:00−14ssw249889 0.0 1017106
09:00−15s259788 0.1 1017130
12:00−12s369168 0.0 1017247
15:00−11s378954 0.0 1016325
18:00−12sse310920 0.0 1014271
21:00−12sse4118524 0.0 1012353
21 january, thu
thu2100:00−10sse51278100 0.0 1009484
03:00−9s51393100 1.0 1005756
06:00−7s61394100 1.9 1001757
09:00−6s61394100 4.3 998618
12:00−2ssw61395100 1.8 996528
15:00+2sw51398100 2.9 996548
18:00+2wsw41298100 0.8 997505
21:00−3n3696100 1.1 1000244
22 january, fri
fri2200:00−5ne2495100 0.3 1002209
03:00−6ene3594100 0.6 1003232
06:00−5ene2496100 1.3 1004170
09:00−4e2496100 1.9 1005143
12:00−4e3496100 0.0 1005140
15:00−2ese3596100 0.0 1005217
18:00−3ese3795100 0.0 1005234
21:00−2ese4794100 0.0 1004244